User: anonymous   Login
Location: Lima
(44.6384°N, 112.5920°W)
Time: 13:50:45
(UTC+00:00)
Language:

NOAA 19 - Orbit

View from above orbital plane
View from above orbital plane
View from above satellite
View from above satellite

Ground track
Ground track

The orbit data is extracted from the following two-line orbital elements,

1 33591U 09005A   24104.15534141  .00000251  00000-0  15923-3 0  9991
2 33591  99.0538 159.2503 0014856 114.7981 245.4738 14.12966135782443
Epoch (UTC): 13 April 2024 03:43:41
Eccentricity: 0.0014856
inclination: 99.0538°
perigee height: 838 km
apogee height: 860 km
right ascension of ascending node: 159.2503°
argument of perigee: 114.7981°
revolutions per day: 14.12966135
mean anomaly at epoch: 245.4738°
orbit number at epoch: 78244

The dashed part of the orbit path shows where the satellite is in the earth's shadow,  

DLR